FW7499 Weather Reports


Display with metric or nautical units.
time (UTC)temp
F
wind
direction
speed
MPH
gust
MPH
rain 1hr
in
rain 24hr
in
rain mn
in
humidity
%
barometer
mb
20260508122011 51 172 0.0 0.0 0.00 0.00 0.00 66 1009.1
20260508121519 51 172 0.0 0.0 0.00 0.00 0.00 67 1009.0
20260508121011 51 172 0.0 3.0 0.00 0.00 0.00 67 1009.0
20260508120503 51 172 1.0 3.0 0.00 0.00 0.00 66 1009.1
20260508120022 51 165 1.0 3.0 0.00 0.00 0.00 66 1009.1
20260508115508 51 181 1.0 3.0 0.00 0.00 0.00 63 1009.2
20260508115003 51 134 0.0 0.0 0.00 0.00 0.00 62 1009.1
20260508114508 50 133 0.0 0.0 0.00 0.00 0.00 64 1009.4
20260508114009 50 133 0.0 0.0 0.00 0.00 0.00 64 1009.4
20260508113507 50 134 0.0 0.0 0.00 0.00 0.00 64 1009.4
20260508113006 49 134 0.0 0.0 0.00 0.00 0.00 65 1009.2
20260508112507 50 134 0.0 0.0 0.00 0.00 0.00 65 1009.1
20260508112005 50 134 0.0 0.0 0.00 0.00 0.00 63 1009.1
20260508111508 50 134 0.0 0.0 0.00 0.00 0.00 61 1009.1
20260508111006 50 134 0.0 0.0 0.00 0.00 0.00 63 1009.2
20260508110504 50 134 0.0 0.0 0.00 0.00 0.00 62 1009.2
20260508110019 50 133 0.0 0.0 0.00 0.00 0.00 58 1009.1
20260508105503 49 133 0.0 0.0 0.00 0.00 0.00 59 1009.1
20260508105005 49 134 0.0 0.0 0.00 0.00 0.00 65 1009.2
20260508104520 49 134 0.0 0.0 0.00 0.00 0.00 65 1009.3
20260508104003 50 134 0.0 0.0 0.00 0.00 0.00 65 1009.5
20260508103503 50 134 0.0 0.0 0.00 0.00 0.00 61 1009.3
20260508103023 51 134 0.0 0.0 0.00 0.00 0.00 62 1009.2
20260508102505 51 134 0.0 0.0 0.00 0.00 0.00 60 1009.0
20260508102005 51 133 0.0 0.0 0.00 0.00 0.00 57 1009.0
20260508101504 50 133 0.0 0.0 0.00 0.00 0.00 57 1009.4
20260508101006 49 134 0.0 0.0 0.00 0.00 0.00 62 1009.7
20260508100505 50 134 0.0 0.0 0.00 0.00 0.00 62 1009.8
20260508100013 49 134 0.0 0.0 0.00 0.00 0.00 66 1009.9
20260508095506 50 133 0.0 2.0 0.00 0.00 0.00 65 1009.9
20260508095007 51 134 0.0 2.0 0.00 0.00 0.00 60 1009.6
20260508094507 52 134 0.0 1.0 0.00 0.00 0.00 57 1009.5
20260508094007 52 134 0.0 1.0 0.00 0.00 0.00 52 1009.5
20260508093507 51 134 0.0 0.0 0.00 0.00 0.00 55 1009.6
20260508093003 51 134 0.0 0.0 0.00 0.00 0.00 58 1009.6
20260508092506 51 134 0.0 0.0 0.00 0.00 0.00 61 1009.7
20260508092007 52 134 0.0 0.0 0.00 0.00 0.00 61 1009.7
20260508091523 52 134 0.0 0.0 0.00 0.00 0.00 62 1009.7
20260508091004 52 134 0.0 0.0 0.00 0.00 0.00 59 1009.6
20260508090506 52 134 0.0 0.0 0.00 0.00 0.00 59 1009.7
20260508090008 52 134 0.0 0.0 0.00 0.00 0.00 60 1009.7
20260508085507 52 134 0.0 1.0 0.00 0.00 0.00 61 1009.8
20260508085006 52 134 0.0 1.0 0.00 0.00 0.00 62 1009.6
20260508084511 54 134 0.0 2.0 0.00 0.00 0.00 54 1009.7
20260508084006 54 134 0.0 2.0 0.00 0.00 0.00 54 1009.9
20260508083505 54 134 1.0 2.0 0.00 0.00 0.00 54 1009.8
20260508083018 55 132 1.0 2.0 0.00 0.00 0.00 56 1009.6
20260508082504 55 132 0.0 1.0 0.00 0.00 0.00 49 1009.6
20260508082011 54 131 0.0 1.0 0.00 0.00 0.00 49 1009.5
20260508081509 53 131 0.0 1.0 0.00 0.00 0.00 59 1009.5
20260508081008 53 131 0.0 1.0 0.00 0.00 0.00 60 1009.6
20260508080510 53 131 0.0 0.0 0.00 0.00 0.00 61 1009.8
20260508080010 54 131 0.0 2.0 0.00 0.00 0.00 59 1009.9
20260508075506 54 131 0.0 2.0 0.00 0.00 0.00 54 1009.9
20260508075006 55 242 0.0 3.0 0.00 0.00 0.00 54 1010.1
20260508074512 55 242 0.0 3.0 0.00 0.00 0.00 52 1009.9
20260508074008 55 296 0.0 0.0 0.00 0.00 0.00 53 1010.0
20260508073508 55 296 0.0 1.0 0.00 0.00 0.00 52 1009.9
20260508073014 54 296 0.0 3.0 0.00 0.00 0.00 54 1009.9
20260508072506 54 296 0.0 3.0 0.00 0.00 0.00 59 1009.8
20260508072006 53 342 0.0 0.0 0.00 0.00 0.00 57 1009.5
20260508071506 53 342 0.0 0.0 0.00 0.00 0.00 58 1009.6
20260508071004 53 342 0.0 0.0 0.00 0.00 0.00 58 1009.6
20260508070507 53 342 0.0 0.0 0.00 0.00 0.00 59 1009.7
20260508070004 53 342 0.0 0.0 0.00 0.00 0.00 57 1009.9
20260508065504 53 342 0.0 0.0 0.00 0.00 0.00 58 1009.9
20260508065003 53 342 0.0 0.0 0.00 0.00 0.00 60 1010.0
20260508064503 53 342 0.0 0.0 0.00 0.00 0.00 62 1009.9
20260508064003 54 342 0.0 0.0 0.00 0.00 0.00 60 1009.9
20260508063504 54 342 0.0 0.0 0.00 0.00 0.00 51 1010.0
20260508063010 55 342 0.0 0.0 0.00 0.00 0.00 50 1010.0
20260508062506 55 342 0.0 0.0 0.00 0.00 0.00 53 1010.1
20260508062008 55 342 0.0 0.0 0.00 0.00 0.00 50 1010.1
20260508061508 55 342 0.0 0.0 0.00 0.00 0.00 53 1010.1
20260508061003 55 342 0.0 0.0 0.00 0.00 0.00 51 1010.0
20260508060510 54 342 0.0 0.0 0.00 0.00 0.00 52 1009.8
20260508060007 54 342 0.0 0.0 0.00 0.00 0.00 56 1009.8
20260508055502 54 342 0.0 0.0 0.00 0.00 0.00 57 1009.7
20260508055007 54 342 0.0 0.0 0.00 0.00 0.00 53 1009.8
20260508054510 54 342 0.0 0.0 0.00 0.00 0.00 57 1009.9
20260508054004 54 342 0.0 0.0 0.00 0.00 0.00 55 1009.8
20260508053503 54 342 0.0 0.0 0.00 0.00 0.00 50 1009.8
20260508053006 53 342 0.0 0.0 0.00 0.00 0.00 54 1009.8
20260508052504 53 342 0.0 0.0 0.00 0.00 0.00 58 1009.7
20260508052008 53 342 0.0 0.0 0.00 0.00 0.00 59 1009.8
20260508051511 53 342 0.0 0.0 0.00 0.00 0.00 57 1009.8
20260508051007 53 342 0.0 0.0 0.00 0.00 0.00 58 1009.8
20260508050503 53 342 0.0 0.0 0.00 0.00 0.00 55 1009.9
20260508050015 53 342 0.0 0.0 0.00 0.00 0.00 56 1009.9
20260508045508 54 342 0.0 0.0 0.00 0.00 0.00 52 1009.9
20260508045004 54 342 0.0 0.0 0.00 0.00 0.00 50 1010.0
20260508044513 54 342 0.0 0.0 0.00 0.00 0.00 52 1010.1
20260508044007 54 342 0.0 0.0 0.00 0.00 0.00 52 1010.1
20260508043503 54 342 0.0 0.0 0.00 0.00 0.00 52 1010.2
20260508043017 53 342 0.0 0.0 0.00 0.00 0.00 54 1010.1
20260508042504 53 342 0.0 0.0 0.00 0.00 0.00 50 1010.1
20260508042007 53 342 0.0 0.0 0.00 0.00 0.00 49 1010.1
20260508041516 53 342 0.0 0.0 0.00 0.00 0.00 50 1010.1
20260508041003 53 342 0.0 0.0 0.00 0.00 0.00 48 1010.1
20260508040507 53 342 0.0 0.0 0.00 0.00 0.00 51 1010.2
20260508040019 54 342 0.0 0.0 0.00 0.00 0.00 51 1010.2
20260508035505 54 342 0.0 0.0 0.00 0.00 0.00 50 1010.2
20260508035006 55 342 0.0 0.0 0.00 0.00 0.00 46 1010.0
20260508034511 55 342 0.0 0.0 0.00 0.00 0.00 45 1009.9
20260508034007 55 342 0.0 0.0 0.00 0.00 0.00 47 1009.9
20260508033506 55 342 0.0 0.0 0.00 0.00 0.00 46 1009.9
20260508033010 56 342 0.0 0.0 0.00 0.00 0.00 44 1010.0
20260508032508 56 342 0.0 0.0 0.00 0.00 0.00 43 1010.1
20260508032004 56 342 0.0 0.0 0.00 0.00 0.00 45 1010.1
20260508031515 56 342 0.0 0.0 0.00 0.00 0.00 44 1010.1
20260508031003 57 342 0.0 0.0 0.00 0.00 0.00 43 1010.1
20260508030503 57 342 0.0 0.0 0.00 0.00 0.00 43 1010.1
20260508030013 57 342 0.0 0.0 0.00 0.00 0.00 44 1010.0
20260508025510 57 342 0.0 0.0 0.00 0.00 0.00 41 1009.9
20260508025009 57 342 0.0 0.0 0.00 0.00 0.00 41 1009.9
20260508024516 58 342 0.0 0.0 0.00 0.00 0.00 40 1009.9
20260508024007 58 342 0.0 0.0 0.00 0.00 0.00 39 1009.9
20260508023507 58 342 0.0 0.0 0.00 0.00 0.00 38 1009.9
20260508023021 59 342 0.0 0.0 0.00 0.00 0.00 39 1009.9
20260508022505 58 342 0.0 0.0 0.00 0.00 0.00 39 1009.9
20260508022006 58 342 0.0 0.0 0.00 0.00 0.00 41 1009.8
20260508021520 59 342 0.0 0.0 0.00 0.00 0.00 42 1009.7
20260508021009 59 342 0.0 0.0 0.00 0.00 0.00 40 1009.6
20260508020506 59 342 0.0 0.0 0.00 0.00 0.00 42 1009.6
20260508020022 59 342 0.0 0.0 0.00 0.00 0.00 39 1009.4
20260508015506 60 342 0.0 0.0 0.00 0.00 0.00 42 1009.4
20260508015006 60 342 0.0 0.0 0.00 0.00 0.00 40 1009.4
20260508014515 60 342 0.0 0.0 0.00 0.00 0.00 38 1009.4
20260508014009 61 342 0.0 0.0 0.00 0.00 0.00 37 1009.4
20260508013511 62 342 0.0 0.0 0.00 0.00 0.00 37 1009.4
20260508013013 63 342 0.0 1.0 0.00 0.00 0.00 35 1009.4
20260508012508 64 342 0.0 1.0 0.00 0.00 0.00 33 1009.2
20260508012010 64 342 0.0 5.0 0.00 0.00 0.00 33 1009.1
20260508011514 65 342 1.0 5.0 0.00 0.00 0.00 30 1009.0
20260508011006 65 342 2.0 5.0 0.00 0.00 0.00 30 1008.9
20260508010507 65 329 1.0 3.0 0.00 0.00 0.00 31 1008.9
20260508010032 66 331 0.0 3.0 0.00 0.00 0.00 32 1008.8
20260508005507 66 352 0.0 4.0 0.00 0.00 0.00 32 1008.8
20260508005006 66 355 1.0 5.0 0.00 0.00 0.00 30 1008.8
20260508004524 66 339 0.0 5.0 0.00 0.00 0.00 31 1008.7
20260508004008 67 323 1.0 3.0 0.00 0.00 0.00 32 1008.7
20260508003506 67 326 1.0 8.0 0.00 0.00 0.00 29 1008.7
20260508003021 67 304 2.0 9.0 0.00 0.00 0.00 28 1008.6
20260508002509 67 339 4.0 9.0 0.00 0.00 0.00 29 1008.6
20260508002011 68 306 3.0 6.0 0.00 0.00 0.00 29 1008.5
20260508001521 68 306 3.0 6.0 0.00 0.00 0.00 30 1008.6
20260508001007 68 342 2.0 6.0 0.00 0.00 0.00 30 1008.5
20260508000508 68 335 2.0 5.0 0.00 0.00 0.00 31 1008.5
20260508000017 69 355 2.0 9.0 0.00 0.00 0.00 28 1008.4
20260507235515 69 304 1.0 9.0 0.00 0.00 0.00 29 1008.4
20260507235006 69 318 3.0 10.0 0.00 0.00 0.00 29 1008.5
20260507234515 69 346 3.0 10.0 0.00 0.00 0.00 28 1008.5
20260507234008 70 305 2.0 9.0 0.00 0.00 0.00 29 1008.4
20260507233508 70 261 4.0 9.0 0.00 0.00 0.00 27 1008.5
20260507233027 71 5 3.0 9.0 0.00 0.00 0.00 26 1008.4
20260507232506 71 314 4.0 8.0 0.00 0.00 0.00 27 1008.4
20260507232007 71 342 2.0 9.0 0.00 0.00 0.00 24 1008.4
20260507231520 71 325 1.0 9.0 0.00 0.00 0.00 28 1008.3
20260507231009 72 312 1.0 9.0 0.00 0.00 0.00 27 1008.4
20260507230507 72 308 3.0 8.0 0.00 0.00 0.00 27 1008.3
20260507230023 72 315 3.0 8.0 0.00 0.00 0.00 28 1008.3
20260507225510 72 301 2.0 8.0 0.00 0.00 0.00 26 1008.3
20260507225007 72 326 1.0 9.0 0.00 0.00 0.00 29 1008.2
20260507224527 72 310 3.0 9.0 0.00 0.00 0.00 30 1008.3
20260507224007 72 314 2.0 8.0 0.00 0.00 0.00 29 1008.3
20260507223510 72 323 0.0 8.0 0.00 0.00 0.00 28 1008.3
20260507223027 72 327 3.0 9.0 0.00 0.00 0.00 28 1008.5
20260507222509 72 294 3.0 9.0 0.00 0.00 0.00 29 1008.5
20260507222007 72 311 4.0 9.0 0.00 0.00 0.00 27 1008.5
20260507221503 72 319 4.0 9.0 0.00 0.00 0.00 29 1008.5
20260507221002 73 331 3.0 8.0 0.00 0.00 0.00 27 1008.5
20260507220502 72 275 1.0 11.0 0.00 0.00 0.00 31 1008.6
20260507220018 72 317 3.0 11.0 0.00 0.00 0.00 29 1008.4
20260507215503 72 319 6.0 11.0 0.00 0.00 0.00 28 1008.5
20260507215003 73 309 3.0 7.0 0.00 0.00 0.00 28 1008.6
20260507214510 72 360 2.0 9.0 0.00 0.00 0.00 31 1008.5
20260507214003 72 319 2.0 9.0 0.00 0.00 0.00 30 1008.6
20260507213503 72 221 1.0 10.0 0.00 0.00 0.00 27 1008.7
20260507213009 72 339 4.0 10.0 0.00 0.00 0.00 29 1008.7
20260507212505 72 340 2.0 9.0 0.00 0.00 0.00 30 1008.7
20260507212003 72 217 3.0 9.0 0.00 0.00 0.00 28 1008.7
20260507211512 72 346 3.0 14.0 0.00 0.00 0.00 27 1008.6
20260507211005 73 315 6.0 14.0 0.00 0.00 0.00 28 1008.8
20260507210514 73 321 3.0 9.0 0.00 0.00 0.00 28 1008.8
20260507210003 73 346 3.0 11.0 0.00 0.00 0.00 30 1008.7
20260507205505 72 314 3.0 11.0 0.00 0.00 0.00 28 1008.8
20260507205007 72 340 6.0 10.0 0.00 0.00 0.00 28 1008.9
20260507204508 73 316 6.0 10.0 0.00 0.00 0.00 32 1008.9
20260507204003 72 11 3.0 12.0 0.00 0.00 0.00 30 1008.9
20260507203503 72 341 4.0 12.0 0.00 0.00 0.00 30 1009.1
20260507203007 72 340 2.0 10.0 0.00 0.00 0.00 32 1009.0
20260507202504 72 296 3.0 11.0 0.00 0.00 0.00 28 1009.1
20260507202004 73 302 4.0 11.0 0.00 0.00 0.00 28 1009.1
20260507201505 73 351 1.0 7.0 0.00 0.00 0.00 29 1009.1
20260507201004 73 296 1.0 8.0 0.00 0.00 0.00 28 1009.2
20260507200504 72 263 1.0 13.0 0.00 0.00 0.00 31 1009.1
20260507200014 73 338 3.0 13.0 0.00 0.00 0.00 32 1009.2
20260507195507 73 302 2.0 9.0 0.00 0.00 0.00 31 1009.0
20260507195003 72 311 4.0 9.0 0.00 0.00 0.00 32 1009.0
20260507194510 72 336 3.0 9.0 0.00 0.00 0.00 34 1009.0
20260507194007 72 346 2.0 10.0 0.00 0.00 0.00 29 1009.0
20260507193509 73 355 0.0 11.0 0.00 0.00 0.00 37 1009.0
20260507193008 73 338 2.0 11.0 0.00 0.00 0.00 36 1009.0
20260507192503 72 321 2.0 11.0 0.00 0.00 0.00 36 1009.0
20260507192003 72 319 1.0 11.0 0.00 0.00 0.00 37 1009.0
20260507191509 73 240 3.0 10.0 0.00 0.00 0.00 35 1009.0
20260507191003 72 322 4.0 10.0 0.00 0.00 0.00 35 1009.0
20260507190508 71 238 2.0 5.0 0.00 0.00 0.00 37 1009.1
20260507190014 71 309 2.0 9.0 0.00 0.00 0.00 34 1009.0
20260507185503 70 69 2.0 9.0 0.00 0.00 0.00 35 1009.1
20260507185006 71 307 3.0 10.0 0.00 0.00 0.00 37 1009.2
20260507184511 71 34 3.0 12.0 0.00 0.00 0.00 38 1009.2
20260507184007 71 298 3.0 12.0 0.00 0.00 0.00 36 1009.2
20260507183502 71 323 3.0 12.0 0.00 0.00 0.00 35 1009.3
20260507183008 70 202 2.0 12.0 0.00 0.00 0.00 34 1009.4
20260507182508 71 301 3.0 8.0 0.00 0.00 0.00 34 1009.4
20260507182011 70 302 2.0 8.0 0.00 0.00 0.00 34 1009.5
20260507181515 70 257 2.0 11.0 0.00 0.00 0.00 41 1009.7
20260507181006 70 292 4.0 11.0 0.00 0.00 0.00 38 1009.6
20260507180506 70 317 4.0 11.0 0.00 0.00 0.00 39 1009.7
20260507180010 69 231 2.0 10.0 0.00 0.00 0.00 36 1009.7
20260507175508 70 300 3.0 10.0 0.00 0.00 0.00 38 1009.7
20260507175006 70 352 3.0 12.0 0.00 0.00 0.00 42 1009.8
20260507174510 68 279 5.0 12.0 0.00 0.00 0.00 39 1009.8
20260507174004 68 352 4.0 9.0 0.00 0.00 0.00 34 1009.9
20260507173505 68 143 2.0 8.0 0.00 0.00 0.00 36 1009.9
20260507173033 69 82 2.0 9.0 0.00 0.00 0.00 38 1009.9
20260507172506 67 261 2.0 10.0 0.00 0.00 0.00 38 1010.1
20260507172006 67 336 4.0 10.0 0.00 0.00 0.00 38 1010.1
20260507171519 67 294 3.0 9.0 0.00 0.00 0.00 37 1010.2
20260507171005 68 279 1.0 8.0 0.00 0.00 0.00 42 1010.2
20260507170507 67 266 2.0 8.0 0.00 0.00 0.00 43 1010.2
20260507170017 67 351 2.0 8.0 0.00 0.00 0.00 41 1010.4
20260507165505 67 122 2.0 12.0 0.00 0.00 0.00 37 1010.4
20260507165006 66 44 3.0 12.0 0.00 0.00 0.00 42 1010.6
20260507164515 65 229 2.0 10.0 0.00 0.00 0.00 40 1010.6
20260507164007 66 247 3.0 10.0 0.00 0.00 0.00 38 1010.7
20260507163507 66 276 3.0 9.0 0.00 0.00 0.00 38 1010.7
20260507163012 66 281 2.0 9.0 0.00 0.00 0.00 39 1010.9
20260507162508 65 318 1.0 5.0 0.00 0.00 0.00 44 1010.8
20260507162006 65 38 0.0 7.0 0.00 0.00 0.00 46 1010.9
20260507161519 64 195 2.0 9.0 0.00 0.00 0.00 45 1010.9
20260507161006 64 212 2.0 9.0 0.00 0.00 0.00 42 1011.0
20260507160506 63 223 2.0 8.0 0.00 0.00 0.00 46 1011.0
20260507160024 63 217 1.0 5.0 0.00 0.00 0.00 45 1011.1
20260507155508 63 305 0.0 5.0 0.00 0.00 0.00 47 1011.2
20260507155009 62 232 2.0 6.0 0.00 0.00 0.00 49 1011.3
20260507154524 61 276 2.0 8.0 0.00 0.00 0.00 52 1011.3
20260507154007 62 281 2.0 8.0 0.00 0.00 0.00 51 1011.4
20260507153504 61 254 0.0 5.0 0.00 0.00 0.00 53 1011.4
20260507153014 61 333 2.0 8.0 0.00 0.00 0.00 53 1011.5
20260507152508 60 263 1.0 8.0 0.00 0.00 0.00 53 1011.5
20260507152006 60 259 1.0 6.0 0.00 0.00 0.00 54 1011.6
20260507151519 59 254 1.0 7.0 0.00 0.00 0.00 58 1011.5
20260507151004 59 281 2.0 7.0 0.00 0.00 0.00 55 1011.6
20260507150509 59 324 1.0 9.0 0.00 0.00 0.00 58 1011.6
20260507150019 58 306 3.0 11.0 0.00 0.00 0.00 57 1011.6
20260507145509 58 260 3.0 11.0 0.00 0.00 0.00 56 1011.7
20260507145007 58 301 2.0 10.0 0.00 0.00 0.00 57 1011.8
20260507144518 58 219 2.0 8.0 0.00 0.00 0.00 59 1011.8
20260507144010 57 319 2.0 7.0 0.00 0.00 0.00 58 1011.8
20260507143505 57 303 2.0 8.0 0.00 0.00 0.00 59 1011.8
20260507143027 55 234 2.0 8.0 0.00 0.00 0.00 60 1011.8
20260507142507 55 243 1.0 6.0 0.00 0.00 0.00 63 1011.9
20260507142012 54 327 1.0 8.0 0.00 0.00 0.00 64 1011.9
20260507141517 55 276 2.0 9.0 0.00 0.00 0.00 63 1012.0
20260507141008 54 63 2.0 9.0 0.00 0.00 0.00 65 1012.0
20260507140507 54 257 0.0 8.0 0.00 0.00 0.00 68 1012.1
20260507140022 54 306 1.0 8.0 0.00 0.00 0.00 66 1012.2
20260507135506 53 305 1.0 7.0 0.00 0.00 0.00 66 1012.2
20260507135005 53 321 0.0 6.0 0.00 0.00 0.00 68 1012.2
20260507134527 52 298 0.0 6.0 0.00 0.00 0.00 69 1012.2
20260507134010 51 263 2.0 8.0 0.00 0.00 0.00 69 1012.2
20260507133506 51 244 2.0 8.0 0.00 0.00 0.00 70 1012.2
20260507133022 51 278 2.0 7.0 0.00 0.00 0.00 71 1012.2
20260507132505 50 127 0.0 8.0 0.00 0.00 0.00 73 1012.1
20260507132012 50 194 1.0 9.0 0.00 0.00 0.00 74 1012.1
20260507131504 49 302 3.0 10.0 0.00 0.00 0.00 74 1012.2
20260507131004 49 336 2.0 10.0 0.00 0.00 0.00 76 1012.3
20260507130508 48 236 3.0 7.0 0.00 0.00 0.00 77 1012.4
20260507130017 48 239 1.0 7.0 0.00 0.00 0.00 78 1012.4
20260507125507 47 300 2.0 8.0 0.00 0.00 0.00 79 1012.5
20260507125004 47 226 1.0 8.0 0.00 0.00 0.00 81 1012.5
20260507124508 47 205 1.0 8.0 0.00 0.00 0.00 80 1012.4
20260507124003 47 5 2.0 8.0 0.00 0.00 0.00 79 1012.5
20260507123503 47 228 2.0 9.0 0.00 0.00 0.00 79 1012.5
20260507123009 47 217 0.0 9.0 0.00 0.00 0.00 79 1012.5
20260507122503 47 283 0.0 7.0 0.00 0.00 0.00 77 1012.5